User: anonymous   Login
Location: Unspecified
(0.0000°N, 0.0000°E)
Time: 20:12:12
(UTC+00:00)
Language:

STARLINK-33846 - Orbit

View from above orbital plane
View from above orbital plane
View from above satellite
View from above satellite

Ground track
Ground track

The orbit is defined by the following mean orbital elements,

1 63780U          26145.54753991 +.00000000 +00000-0 +44402-3 0 00005
2 63780  42.9995 338.7318 0001360 267.4538  92.6158 15.27593724    08
Epoch (UTC): 25 May 2026 13:08:27
Eccentricity: 0.0001360
inclination: 42.9995°
perigee height: 482 km
apogee height: 484 km
right ascension of ascending node: 338.7318°
argument of perigee: 267.4538°
revolutions per day: 15.27593724
mean anomaly at epoch: 92.6158°

The dashed part of the orbit path shows where the satellite is in the earth's shadow,  

DLR